This is the latest recevied weather packets stored in our database for station/object W0SS-13. If no packets are shown the sender has not sent any weather packets the latest 10 day(s).
| Time | Temp. | Humidity | Pressure | Rain* | Wind** | Luminosity | Snow |
|---|---|---|---|---|---|---|---|
| 1777852056 | 25.56° C | 37% | 1009 hPa | 0 mm | - | 71 W/m² | - |
| 1777851754 | 25.56° C | 37% | 1008.9 hPa | 0 mm | - | 76 W/m² | - |
| 1777851450 | 25.56° C | 37% | 1009.1 hPa | 0 mm | - | 80 W/m² | - |
| 1777851146 | 26.11° C | 36% | 1008.9 hPa | 0 mm | - | 70 W/m² | - |
| 1777850843 | 26.11° C | 35% | 1009.2 hPa | 0 mm | - | 72 W/m² | - |
| 1777850540 | 26.11° C | 35% | 1009 hPa | 0 mm | - | 76 W/m² | - |
| 1777850239 | 26.67° C | 35% | 1009.1 hPa | 0 mm | - | 78 W/m² | - |
| 1777849935 | 26.67° C | 33% | 1009.5 hPa | 0 mm | - | 83 W/m² | - |
| 1777849631 | 26.67° C | 35% | 1009.3 hPa | 0 mm | - | 170 W/m² | - |
| 1777849328 | 26.67° C | 33% | 1009.2 hPa | 0 mm | - | 149 W/m² | - |
| 1777849025 | 27.22° C | 33% | 1009.2 hPa | 0 mm | - | 113 W/m² | - |
| 1777848720 | 27.22° C | 33% | 1009.1 hPa | 0 mm | - | 224 W/m² | - |
| 1777848418 | 27.78° C | 32% | 1009.2 hPa | 0 mm | - | 167 W/m² | - |
| 1777848115 | 27.78° C | 31% | 1009.2 hPa | 0 mm | - | 249 W/m² | - |
| 1777847813 | 27.78° C | 31% | 1009.3 hPa | 0 mm | - | 299 W/m² | - |
| 1777847510 | 28.33° C | 31% | 1009.5 hPa | 0 mm | - | 275 W/m² | - |
| 1777847207 | 27.78° C | 30% | 1009.5 hPa | 0 mm | - | 358 W/m² | - |
| 1777846904 | 28.33° C | 32% | 1009.4 hPa | 0 mm | - | 363 W/m² | - |
| 1777846603 | 28.33° C | 32% | 1009.5 hPa | 0 mm | - | 384 W/m² | - |
| 1777846300 | 28.33° C | 30% | 1009.5 hPa | 0 mm | - | 389 W/m² | - |
| 1777845996 | 27.78° C | 33% | 1009.3 hPa | 0 mm | - | 377 W/m² | - |
| 1777845692 | 27.78° C | 34% | 1009.5 hPa | 0 mm | - | 424 W/m² | - |
| 1777845384 | 27.78° C | 30% | 1009.4 hPa | 0 mm | - | 420 W/m² | - |
| 1777845080 | 28.33° C | 30% | 1009.6 hPa | 0 mm | - | 456 W/m² | - |
| 1777844779 | 28.33° C | 32% | 1009.7 hPa | 0 mm | - | 468 W/m² | - |
* Rain latest hour (hover to see other rain measurements)
** Current wind speed in m/s (hover to see current wind gust speed)